Location: Betra
(48.4113°N, 8.6634°E)
Time: 13:49:11
(UTC+00:00)

Cosmos 1709 Rocket - Pass Details

Date: 23 May 2024
Orbit: 947 x 1001 km, 82.9° (Epoch: 13 May)

Event Time Altitude Azimuth Distance (km) Brightness Sun altitude
Exits shadow 01:54:31 17° 206° (SSW) 2,267 5.3 -13.0°
Maximum altitude 01:59:25 60° 283° (WNW) 1,127 4.2 -12.5°
Drops below altitude 10° 02:05:44 10° 3° (N) 2,780 7.3 -11.9°
Sets 02:08:20 0° 7° (N) 3,737 8.1 -11.6°
